Location: *
(51.1248°S, 108.4023°W)
Time: 21:28:57
(UTC+00:00)

MetOp-A - Pass Details

Date: 15 June 2021
Orbit: 819 x 821 km, 98.5° (Epoch: 04 August)

Event Time Altitude Azimuth Distance (km) Brightness Sun altitude
Rises 14:20:43 0° 22° (NNE) 3,353 8.2 -8.2°
Reaches altitude 10° 14:23:03 10° 23° (NNE) 2,427 7.4 -7.9°
Maximum altitude 14:28:25 77° 107° (ESE) 860 4.4 -7.2°
Drops below altitude 10° 14:33:52 10° 192° (SSW) 2,456 6.2 -6.4°
Sets 14:36:15 0° 193° (SSW) 3,395 6.9 -6.1°
